• în Republica Moldova
  • Lista ţărilor
  • Pe 7 zile
  • Temperatura apei
  • Hartă satelitară
  • Meteo pe hartă
  • Widget-uri
  • user-avatar
    Intrare

    Meteo pe oră la Berezovka

    Astăzi, 16 Iulie, Luni

    Timp Temperatura Precipitaţii Vânt Presiune Umiditate
    00:00 +18°C° 0 mm 1 m/s 742 mmHg 87%
    01:00 +18°C° 0 mm 1 m/s 742 mmHg 89%
    02:00 +16°C° 0 mm 1 m/s 742 mmHg 91%
    03:00 +16°C° 0 mm 1 m/s 742 mmHg 92%
    04:00 +16°C° 0 mm 1 m/s 742 mmHg 93%
    05:00 +16°C° 0 mm 1 m/s 741 mmHg 93%
    06:00 +19°C° 0 mm 1 m/s 742 mmHg 87%
    07:00 +20°C° 0 mm 1 m/s 742 mmHg 81%
    08:00 +22°C° 0 mm 1 m/s 742 mmHg 75%
    09:00 +23°C° 0,2 mm 1 m/s 741 mmHg 71%
    10:00 +25°C° 0,2 mm 1 m/s 741 mmHg 67%
    11:00 +26°C° 0,2 mm 1 m/s 741 mmHg 63%
    12:00 +26°C° 0,4 mm 2 m/s 741 mmHg 63%
    13:00 +26°C° 0,4 mm 2 m/s 740 mmHg 63%
    14:00 +26°C° 0,4 mm 2 m/s 740 mmHg 63%
    15:00 +26°C° 0,3 mm 2 m/s 740 mmHg 63%
    16:00 +26°C° 0,3 mm 2 m/s 740 mmHg 64%
    17:00 +26°C° 0,3 mm 2 m/s 740 mmHg 64%
    18:00 +25°C° 0,1 mm 2 m/s 739 mmHg 71%
    19:00 +23°C° 0,1 mm 1 m/s 739 mmHg 77%
    20:00 +22°C° 0,1 mm 1 m/s 739 mmHg 84%
    21:00 +21°C° 0 mm 1 m/s 739 mmHg 87%
    22:00 +21°C° 0 mm 1 m/s 739 mmHg 89%
    23:00 +20°C° 0 mm 1 m/s 739 mmHg 91%

    Mâine, 17 Iulie, Marţi

    Timp Temperatura Precipitaţii Vânt Presiune Umiditate
    00:00 +20°C° 0 mm 1 m/s 739 mmHg 92%
    01:00 +20°C° 0 mm 1 m/s 739 mmHg 93%
    02:00 +20°C° 0 mm 1 m/s 739 mmHg 94%
    03:00 +20°C° 0,4 mm 1 m/s 739 mmHg 95%
    04:00 +19°C° 0,4 mm 1 m/s 739 mmHg 96%
    05:00 +19°C° 0,4 mm 1 m/s 738 mmHg 97%
    06:00 +20°C° 0,2 mm 1 m/s 738 mmHg 96%
    07:00 +20°C° 0,2 mm 1 m/s 738 mmHg 96%
    08:00 +21°C° 0,2 mm 1 m/s 738 mmHg 95%
    09:00 +21°C° 0,8 mm 1 m/s 738 mmHg 95%
    10:00 +21°C° 0,8 mm 1 m/s 738 mmHg 95%
    11:00 +21°C° 0,8 mm 1 m/s 738 mmHg 94%
    12:00 +21°C° 0,3 mm 1 m/s 738 mmHg 93%
    13:00 +22°C° 0,3 mm 1 m/s 738 mmHg 92%
    14:00 +22°C° 0,3 mm 1 m/s 738 mmHg 91%
    15:00 +23°C° 0,2 mm 1 m/s 738 mmHg 89%
    16:00 +23°C° 0,2 mm 1 m/s 738 mmHg 86%
    17:00 +24°C° 0,2 mm 2 m/s 738 mmHg 84%
    18:00 +23°C° 0,4 mm 1 m/s 738 mmHg 87%
    19:00 +22°C° 0,4 mm 1 m/s 738 mmHg 91%
    20:00 +22°C° 0,4 mm 1 m/s 738 mmHg 94%
    21:00 +21°C° 0,5 mm 1 m/s 738 mmHg 95%
    22:00 +21°C° 0,5 mm 1 m/s 738 mmHg 95%
    23:00 +21°C° 0,5 mm 1 m/s 738 mmHg 96%

    Poimâine, 18 Iulie, Miercuri

    Timp Temperatura Precipitaţii Vânt Presiune Umiditate
    00:00 +20°C° 0,3 mm 2 m/s 737 mmHg 96%
    01:00 +20°C° 0,3 mm 2 m/s 737 mmHg 97%
    02:00 +20°C° 0,3 mm 2 m/s 737 mmHg 98%
    03:00 +20°C° 0,4 mm 2 m/s 737 mmHg 98%
    04:00 +20°C° 0,4 mm 2 m/s 737 mmHg 98%
    05:00 +20°C° 0,4 mm 3 m/s 737 mmHg 98%
    06:00 +20°C° 0,2 mm 3 m/s 737 mmHg 97%
    07:00 +21°C° 0,2 mm 3 m/s 737 mmHg 95%
    08:00 +22°C° 0,2 mm 3 m/s 737 mmHg 93%
    09:00 +24°C° 0,1 mm 3 m/s 737 mmHg 89%
    10:00 +25°C° 0,1 mm 3 m/s 737 mmHg 86%
    11:00 +25°C° 0,1 mm 3 m/s 737 mmHg 82%
    12:00 +26°C° 0,6 mm 4 m/s 737 mmHg 80%
    13:00 +27°C° 0,6 mm 4 m/s 737 mmHg 78%
    14:00 +27°C° 0,6 mm 4 m/s 737 mmHg 76%
    15:00 +27°C° 0,5 mm 4 m/s 737 mmHg 76%
    16:00 +27°C° 0,5 mm 4 m/s 737 mmHg 76%
    17:00 +27°C° 0,5 mm 3 m/s 737 mmHg 77%
    18:00 +26°C° 0,1 mm 3 m/s 737 mmHg 81%
    19:00 +24°C° 0,1 mm 3 m/s 737 mmHg 86%
    20:00 +23°C° 0,1 mm 2 m/s 737 mmHg 91%
    21:00 +21°C° 0,1 mm 2 m/s 737 mmHg 93%
    22:00 +21°C° 0,1 mm 2 m/s 737 mmHg 94%
    23:00 +20°C° 0,1 mm 2 m/s 738 mmHg 96%

    19 Iulie, Joi

    Timp Temperatura Precipitaţii Vânt Presiune Umiditate
    00:00 +19°C° 0 mm 2 m/s 738 mmHg 96%
    01:00 +19°C° 0 mm 2 m/s 738 mmHg 97%
    02:00 +19°C° 0 mm 2 m/s 738 mmHg 97%
    03:00 +19°C° 0 mm 2 m/s 738 mmHg 98%
    04:00 +18°C° 0 mm 2 m/s 738 mmHg 98%
    05:00 +18°C° 0 mm 2 m/s 738 mmHg 98%
    06:00 +20°C° 0 mm 2 m/s 738 mmHg 93%
    07:00 +21°C° 0 mm 2 m/s 738 mmHg 88%
    08:00 +23°C° 0 mm 2 m/s 738 mmHg 84%
    09:00 +25°C° 0,4 mm 2 m/s 738 mmHg 78%
    10:00 +26°C° 0,4 mm 2 m/s 738 mmHg 73%
    11:00 +27°C° 0,4 mm 2 m/s 738 mmHg 68%
    12:00 +27°C° 1 mm 2 m/s 738 mmHg 67%
    13:00 +27°C° 1 mm 2 m/s 738 mmHg 65%
    14:00 +28°C° 1 mm 2 m/s 738 mmHg 64%
    15:00 +27°C° 0,9 mm 3 m/s 738 mmHg 67%
    16:00 +27°C° 0,9 mm 3 m/s 738 mmHg 70%
    17:00 +26°C° 0,9 mm 3 m/s 738 mmHg 73%
    18:00 +25°C° 0,1 mm 3 m/s 738 mmHg 79%
    19:00 +24°C° 0,1 mm 2 m/s 738 mmHg 85%
    20:00 +21°C° 0,1 mm 2 m/s 738 mmHg 90%
    21:00 +21°C° 0 mm 2 m/s 738 mmHg 92%
    22:00 +20°C° 0 mm 2 m/s 738 mmHg 94%
    23:00 +19°C° 0 mm 2 m/s 738 mmHg 96%

    20 Iulie, Vineri

    Timp Temperatura Precipitaţii Vânt Presiune Umiditate
    00:00 +19°C° 0 mm 2 m/s 738 mmHg 97%
    01:00 +19°C° 0 mm 2 m/s 738 mmHg 97%
    02:00 +18°C° 0 mm 2 m/s 739 mmHg 98%
    03:00 +18°C° 0 mm 2 m/s 739 mmHg 98%
    04:00 +18°C° 0 mm 2 m/s 739 mmHg 98%
    05:00 +18°C° 0 mm 2 m/s 739 mmHg 98%
    06:00 +19°C° 0 mm 2 m/s 739 mmHg 94%
    07:00 +20°C° 0 mm 3 m/s 739 mmHg 91%
    08:00 +21°C° 0 mm 3 m/s 739 mmHg 87%
    09:00 +24°C° 0,4 mm 3 m/s 739 mmHg 82%
    10:00 +25°C° 0,4 mm 3 m/s 739 mmHg 78%
    11:00 +26°C° 0,4 mm 3 m/s 740 mmHg 74%
    12:00 +27°C° 0,8 mm 3 m/s 739 mmHg 70%
    13:00 +27°C° 0,8 mm 3 m/s 739 mmHg 67%
    14:00 +28°C° 0,8 mm 3 m/s 739 mmHg 63%
    15:00 +28°C° 0,7 mm 3 m/s 739 mmHg 65%
    16:00 +28°C° 0,7 mm 3 m/s 739 mmHg 67%
    17:00 +28°C° 0,7 mm 3 m/s 739 mmHg 68%
    18:00 +26°C° 0,5 mm 3 m/s 739 mmHg 75%
    19:00 +25°C° 0,5 mm 2 m/s 739 mmHg 81%
    20:00 +23°C° 0,5 mm 2 m/s 740 mmHg 88%
    21:00 +21°C° 0,1 mm 2 m/s 740 mmHg 90%
    22:00 +21°C° 0,1 mm 2 m/s 740 mmHg 92%
    23:00 +20°C° 0,1 mm 2 m/s 740 mmHg 94%

    21 Iulie, Sâmbătă

    Timp Temperatura Precipitaţii Vânt Presiune Umiditate
    00:00 +20°C° 0 mm 2 m/s 740 mmHg 95%
    01:00 +20°C° 0 mm 2 m/s 740 mmHg 96%
    02:00 +19°C° 0 mm 2 m/s 740 mmHg 97%
    03:00 +19°C° 0,1 mm 2 m/s 740 mmHg 97%
    04:00 +19°C° 0,1 mm 2 m/s 740 mmHg 98%
    05:00 +19°C° 0,1 mm 2 m/s 740 mmHg 98%
    06:00 +20°C° 0,3 mm 3 m/s 740 mmHg 96%
    07:00 +21°C° 0,3 mm 3 m/s 741 mmHg 93%
    08:00 +21°C° 0,3 mm 3 m/s 741 mmHg 91%
    09:00 +22°C° 0,1 mm 3 m/s 741 mmHg 87%
    10:00 +24°C° 0,1 mm 3 m/s 741 mmHg 84%
    11:00 +25°C° 0,1 mm 4 m/s 741 mmHg 80%
    12:00 +25°C° 0,4 mm 4 m/s 741 mmHg 77%
    13:00 +26°C° 0,4 mm 4 m/s 740 mmHg 73%
    14:00 +27°C° 0,4 mm 4 m/s 740 mmHg 70%
    15:00 +27°C° 0,2 mm 4 m/s 740 mmHg 69%
    16:00 +27°C° 0,2 mm 4 m/s 740 mmHg 69%
    17:00 +28°C° 0,2 mm 4 m/s 740 mmHg 68%
    18:00 +26°C° 0,2 mm 3 m/s 740 mmHg 74%
    19:00 +25°C° 0,2 mm 3 m/s 740 mmHg 80%
    20:00 +23°C° 0,2 mm 2 m/s 740 mmHg 87%
    21:00 +23°C° 0,7 mm 2 m/s 740 mmHg 89%
    22:00 +21°C° 0,7 mm 2 m/s 740 mmHg 92%
    23:00 +20°C° 0,7 mm 2 m/s 740 mmHg 95%
    Arată mai mult